Simultaneous Nadir Overpasses (SNOs) Predictions

Prediction of SNOs between METOP-A and TERRA Satellite Orbit:

Table of predicted SNOs for the next 14.0 days since TLE Epoch: 5/26/2018
Index Date (METOP-A) Time (METOP-A) Lat,Lon (METOP-A) SZA (METOP-A ) Date (TERRA) Time (TERRA) Lat,Lon (TERRA) SZA (TERRA ) Distance(km) Time Diff (sec)
1 05/26/2018 06:16:06 -81.42, -44.56 116.49 05/26/2018 06:17:18 -81.42, -44.75 116.47 3.24 72
2 05/26/2018 07:06:47 81.41, 122.68 63.50 05/26/2018 07:06:45 81.41, 122.65 63.49 0.96 2
3 05/26/2018 07:57:01 -81.30, -59.46 115.23 05/26/2018 07:55:56 -81.65, -63.44 115.62 76.29 65
4 05/29/2018 01:50:24 -81.41, 21.67 116.98 05/29/2018 01:51:35 -81.41, 21.54 116.96 2.26 71
5 05/29/2018 02:41:04 81.42,-170.70 63.06 05/29/2018 02:41:01 81.42,-170.70 63.06 0.25 3
6 05/31/2018 21:24:40 -81.42, 88.29 117.38 05/31/2018 21:25:50 -81.42, 88.16 117.36 2.20 70
7 05/31/2018 22:15:21 81.42,-104.49 62.61 05/31/2018 22:15:17 81.41,-104.49 62.60 0.91 4
8 06/03/2018 16:58:58 -81.41, 154.49 117.78 06/03/2018 17:00:07 -81.41, 154.34 117.77 2.63 69
9 06/03/2018 17:49:38 81.42, -37.89 62.26 06/03/2018 17:49:33 81.41, -37.95 62.24 1.05 5
10 06/06/2018 12:33:16 -81.41,-139.32 118.13 06/06/2018 12:34:23 -81.41,-139.16 118.08 2.77 67




NCC Satellite Simultaneous Nadir Overpasses (SNOs) Prediction Service
